Wind_Speed
22 22 21 20 20 20 20 19 19 19 19 18 18 18 19 18 18 18 17 17 16 16 15 14 14 13 13 13 13 14 14 14 14 14 13 13 13 12 11 10 10 10 10 10
24 24 22 22 21 21 21 20 20 20 20 19 19 19 20 19 18 18 18 17 17 17 17 16 15 15 15 14 14 15 15 16 15 14 14 13 13 12 11 11 10 10 10 10
26 25 24 23 22 22 21 21 21 21 20 20 20 20 20 20 19 18 17 17 18 18 18 17 17 17 17 16 15 16 16 15 15 15 14 13 12 12 11 11 10 10 10 10
27 26 25 24 23 22 22 22 22 21 21 21 21 20 20 19 19 18 17 18 18 19 19 18 18 17 17 17 17 17 16 16 15 15 14 13 12 11 11 11 10 11 10 10
27 27 26 25 24 23 23 22 22 22 22 22 22 21 20 19 18 18 17 18 18 19 19 19 19 18 17 18 18 18 17 17 16 15 14 13 12 11 11 10 11 11 11 11
27 27 26 25 25 24 23 23 23 22 22 23 22 21 19 19 17 18 18 18 18 18 18 18 19 18 18 18 18 19 19 18 17 16 15 14 12 12 11 11 12 12 12 11
26 27 26 25 26 25 24 23 22 22 23 23 22 22 20 19 18 18 18 17 17 16 16 17 18 18 18 18 18 18 18 18 17 16 15 14 13 12 12 12 12 12 11 11
26 26 26 26 26 25 24 24 23 22 21 20 23 22 21 20 19 18 18 17 17 16 16 16 17 18 18 18 18 19 18 17 17 16 15 14 14 13 13 13 13 13 12 12
27 26 27 26 26 25 25 25 24 23 22 21 22 22 21 20 19 19 18 17 17 17 16 16 16 16 17 18 18 18 18 18 16 15 14 14 14 13 13 14 14 13 13 13
28 27 27 26 26 26 26 26 26 24 23 22 21 22 21 20 19 18 18 18 17 17 16 16 16 16 17 18 18 18 18 17 17 16 15 14 14 14 13 14 14 14 14 14
27 27 27 27 27 27 27 26 26 26 25 22 20 20 21 19 18 18 18 18 18 17 17 16 16 17 17 18 18 19 18 18 17 17 16 15 15 14 14 13 14 14 14 14
27 27 27 27 27 28 28 27 27 26 26 25 21 20 22 19 19 19 19 18 18 18 19 18 17 17 17 17 18 18 17 17 18 17 17 16 15 15 14 13 13 13 13 13
28 28 27 27 28 29 29 29 28 27 26 25 23 21 22 19 19 20 20 19 19 19 19 19 18 18 18 18 18 18 17 17 17 17 16 16 16 15 13 13 13 13 13 12
28 29 28 28 27 28 29 29 29 28 27 25 24 21 21 19 20 20 20 20 20 20 20 19 18 18 18 18 18 18 18 17 17 16 15 16 16 15 14 14 13 13 13 13
29 29 29 29 29 29 30 30 29 29 27 26 24 23 21 21 21 21 21 21 21 21 21 19 19 18 18 17 17 17 17 16 16 16 15 15 16 16 16 15 14 14 14 14
29 30 29 30 30 30 30 30 30 29 28 27 26 24 22 22 22 23 23 21 21 21 21 20 19 18 18 17 17 16 16 16 16 15 15 15 16 17 16 16 16 15 15 15
29 29 29 29 29 30 32 30 30 29 28 27 25 24 23 23 23 24 23 23 22 21 21 20 20 19 18 17 16 16 17 17 16 16 16 16 17 17 17 17 17 16 16 16
28 28 29 28 29 31 30 29 29 29 28 27 26 25 24 23 23 24 24 23 22 21 20 20 20 19 18 18 17 17 17 17 17 17 18 18 18 18 18 18 18 17 16 17
27 27 28 28 29 29 30 29 29 29 29 28 27 26 25 23 24 24 24 23 22 21 21 20 20 19 19 19 18 18 18 18 19 19 19 19 19 18 18 18 18 18 18 18
27 27 28 28 28 29 29 29 28 28 28 27 26 25 24 24 24 24 23 23 22 21 21 21 20 20 20 20 19 19 19 20 19 20 20 20 19 19 18 19 19 19 19 19
25 26 27 28 28 28 28 28 27 27 26 25 25 25 24 24 25 24 23 23 23 22 22 22 22 21 21 21 21 20 20 20 20 19 19 19 19 19 19 19 19 19 19 20
24 24 26 27 28 27 27 27 27 26 25 24 23 23 24 24 25 24 24 24 24 23 23 22 22 22 22 22 22 22 21 21 20 20 19 19 19 19 20 20 20 19 20 20
23 23 24 27 27 26 25 26 26 25 24 23 22 23 23 23 24 24 25 26 25 24 23 23 23 22 22 22 22 22 22 21 21 21 20 20 20 20 20 19 20 20 20 21
20 22 22 23 25 24 24 23 23 23 23 22 22 22 24 24 24 24 24 25 26 26 25 24 24 24 24 23 23 23 22 23 23 22 21 21 20 20 20 20 20 20 21 21
19 20 21 20 22 22 21 22 23 23 22 22 22 23 23 24 24 24 24 24 25 25 25 25 25 25 25 24 24 23 23 22 21 21 21 21 21 21 21 21 21 21 21 22
17 18 19 19 19 20 20 21 22 22 22 22 22 22 22 23 23 23 24 24 24 24 24 25 25 25 25 25 25 24 24 23 22 21 22 22 22 22 22 22 21 21 21 21
Wind_Direction
238 239 241 243 242 243 244 246 249 252 253 251 250 251 253 253 254 255 256 255 258 265 269 271 274 278 279 282 288 291 295 298 298 298 299 298 292 290 290 287 282 280 279 274
238 240 240 241 242 242 243 244 247 249 250 249 250 251 253 255 255 255 255 257 260 266 268 270 272 275 278 281 286 291 293 294 296 297 296 296 290 287 285 285 282 280 278 275
240 240 240 241 242 243 244 244 245 247 248 248 250 253 253 254 254 255 255 257 258 263 267 269 272 274 276 280 286 290 291 292 291 295 298 296 290 286 281 279 275 273 274 274
239 240 240 241 243 244 245 244 245 246 247 249 249 250 253 253 253 253 255 257 261 264 265 265 268 272 274 278 283 287 289 288 288 292 297 294 288 284 281 276 273 272 271 273
240 240 240 241 242 242 243 243 244 245 247 248 250 249 250 253 252 252 254 257 261 264 264 265 266 269 273 277 280 281 282 284 287 290 291 290 286 280 279 274 273 275 274 272
240 240 239 240 241 241 242 243 245 246 247 248 249 248 248 250 249 251 254 257 263 264 263 265 266 267 270 276 278 279 281 281 283 285 286 287 284 275 273 274 275 275 275 269
240 240 239 238 239 239 240 241 243 244 246 250 249 247 246 248 249 251 256 258 262 264 264 265 265 265 268 271 273 276 280 279 281 282 282 281 281 276 272 272 274 276 275 274
239 240 240 239 238 239 239 239 239 242 247 251 252 249 248 248 250 251 254 257 259 261 263 266 265 263 265 267 270 274 276 278 278 279 278 276 277 276 272 270 271 273 274 274
238 240 242 240 238 239 238 237 239 244 246 246 249 252 251 250 249 251 253 254 257 259 260 261 262 263 264 267 270 273 275 277 277 277 276 276 276 275 272 269 268 270 272 273
237 239 240 239 238 237 237 237 237 238 242 245 250 254 253 250 249 250 249 251 255 261 263 262 261 263 267 267 268 271 272 275 274 272 273 274 275 276 274 269 268 268 270 270
236 238 239 239 237 237 236 235 236 238 241 243 247 252 253 249 246 245 247 251 255 259 262 263 263 266 268 266 267 270 270 272 273 271 271 273 272 271 271 269 268 267 269 268
236 237 238 239 237 236 237 236 237 239 243 245 243 249 253 250 246 245 247 251 255 259 263 266 265 265 267 269 268 267 267 270 270 269 270 269 270 270 267 267 269 269 269 264
236 237 237 238 237 236 235 235 236 239 242 243 242 247 253 252 248 247 249 251 255 260 264 266 265 265 268 271 268 266 266 267 266 265 267 266 266 268 266 265 264 264 263 262
237 237 236 235 235 236 235 235 235 236 239 242 243 244 251 251 248 247 249 251 254 258 262 262 264 265 269 272 269 264 264 262 262 263 265 265 267 266 268 269 263 261 262 263
238 240 239 237 236 236 236 235 235 236 237 239 242 243 245 247 248 247 249 251 253 257 259 260 263 266 269 270 266 261 259 258 259 261 264 265 267 269 268 271 268 266 264 264
238 239 239 238 237 236 235 235 235 236 237 239 241 242 243 246 247 247 248 250 253 256 257 258 261 263 266 266 266 263 259 260 261 261 262 264 266 268 269 271 268 266 265 262
237 238 238 238 237 235 233 232 234 237 239 241 242 242 244 245 245 245 246 248 251 256 257 258 260 260 262 263 263 262 262 260 258 259 262 265 268 267 267 268 267 265 264 260
234 234 236 235 237 235 232 233 235 237 239 240 241 241 242 244 243 243 244 246 250 255 257 258 259 259 260 260 261 262 262 259 260 263 265 266 267 266 265 266 264 262 262 263
235 233 232 233 237 234 233 233 234 236 238 238 239 240 241 243 243 242 243 246 249 252 256 257 258 258 258 259 261 261 262 263 263 264 267 267 268 265 266 267 266 262 263 265
233 233 233 232 232 232 234 235 235 236 237 236 237 238 239 240 241 242 242 246 249 252 255 256 258 258 259 260 263 264 264 265 265 265 265 266 267 267 268 268 265 262 262 264
230 231 231 232 232 233 233 233 232 233 234 235 236 236 237 239 240 241 242 245 248 252 253 256 259 259 259 261 262 264 264 265 264 262 263 264 266 267 268 267 263 262 263 263
227 228 230 230 230 230 231 229 229 230 232 233 235 236 237 240 240 241 242 244 247 251 254 256 259 259 259 260 262 262 263 263 262 262 262 265 266 267 268 266 264 264 264 263
225 227 229 230 229 229 229 228 229 230 230 232 234 236 237 239 241 243 243 245 248 251 253 255 257 258 259 260 261 261 262 261 260 260 261 262 263 265 266 267 268 267 265 265
226 226 226 227 227 227 227 228 227 226 229 230 233 236 237 238 242 246 247 246 247 248 250 253 256 256 258 260 261 260 259 258 258 259 259 261 262 264 267 268 271 270 267 265
221 221 222 224 226 226 225 227 228 228 230 231 233 236 238 240 244 246 246 246 246 247 250 252 254 255 257 258 260 258 257 256 256 256 258 260 262 265 267 269 270 270 269 265
218 219 221 223 221 221 222 225 229 230 232 234 236 238 236 238 242 244 246 247 247 248 250 252 254 256 257 257 256 255 256 255 257 258 259 261 262 264 266 268 268 270 272 269
Height
5849 5852 5854 5857 5859 5861 5863 5865 5866 5867 5867 5869 5870 5871 5872 5873 5874 5874 5875 5875 5875 5875 5875 5875 5875 5874 5873 5873 5872 5871 5869 5868 5866 5864 5862 5861 5859 5858 5857 5856 5855 5855 5854 5854
5844 5847 5850 5851 5853 5855 5857 5860 5861 5862 5863 5864 5866 5867 5868 5868 5869 5870 5871 5871 5872 5872 5872 5872 5871 5871 5870 5870 5869 5868 5866 5865 5863 5861 5860 5858 5856 5855 5854 5854 5853 5852 5852 5852
5838 5842 5843 5845 5848 5850 5852 5855 5856 5857 5858 5860 5861 5863 5864 5864 5865 5866 5867 5867 5868 5868 5868 5868 5868 5867 5867 5866 5866 5864 5863 5861 5860 5858 5857 5855 5854 5853 5852 5851 5851 5850 5850 5849
5832 5835 5838 5840 5842 5845 5847 5849 5851 5852 5854 5856 5857 5859 5859 5860 5861 5862 5863 5863 5864 5864 5864 5864 5864 5864 5863 5863 5862 5861 5860 5858 5857 5855 5854 5853 5851 5850 5849 5849 5848 5848 5847 5847
5826 5829 5832 5834 5837 5839 5842 5843 5845 5847 5848 5850 5852 5854 5856 5855 5856 5857 5858 5859 5859 5859 5859 5859 5859 5860 5859 5859 5858 5857 5856 5855 5854 5852 5851 5850 5849 5848 5847 5846 5846 5845 5845 5844
5820 5823 5825 5828 5831 5833 5835 5838 5840 5841 5843 5845 5847 5848 5851 5851 5852 5853 5853 5854 5854 5855 5855 5855 5855 5855 5855 5855 5854 5853 5852 5851 5850 5849 5848 5847 5846 5845 5844 5844 5843 5843 5842 5841
5813 5816 5819 5822 5824 5827 5830 5833 5835 5837 5839 5841 5842 5842 5846 5846 5847 5848 5849 5849 5850 5850 5850 5850 5851 5851 5850 5850 5850 5849 5848 5847 5846 5846 5845 5844 5843 5842 5842 5841 5841 5840 5840 5839
5808 5810 5812 5815 5819 5821 5824 5827 5831 5833 5836 5837 5836 5837 5841 5841 5842 5843 5844 5845 5845 5845 5846 5846 5846 5846 5846 5846 5846 5845 5845 5844 5843 5842 5841 5840 5840 5839 5838 5838 5838 5838 5837 5836
5802 5805 5807 5809 5812 5815 5818 5820 5825 5828 5829 5831 5832 5833 5834 5836 5837 5838 5839 5840 5840 5841 5841 5842 5842 5842 5841 5842 5841 5841 5841 5840 5839 5838 5837 5837 5836 5835 5835 5835 5834 5834 5834 5833
5795 5798 5800 5803 5805 5808 5812 5815 5817 5820 5823 5825 5828 5828 5830 5830 5832 5833 5834 5835 5836 5836 5837 5837 5837 5837 5837 5837 5837 5837 5836 5836 5835 5835 5834 5833 5832 5832 5831 5831 5831 5831 5830 5830
5788 5791 5794 5797 5799 5802 5805 5808 5810 5814 5817 5820 5824 5827 5824 5825 5827 5828 5829 5830 5831 5832 5832 5832 5832 5832 5832 5832 5832 5832 5831 5831 5831 5830 5830 5830 5829 5828 5828 5827 5827 5827 5826 5826
5780 5784 5787 5790 5793 5795 5798 5802 5805 5808 5810 5813 5818 5822 5818 5820 5821 5823 5824 5825 5826 5827 5827 5827 5827 5827 5827 5827 5827 5827 5827 5826 5826 5826 5826 5825 5825 5824 5824 5824 5823 5823 5822 5822
5773 5777 5780 5783 5787 5789 5791 5794 5798 5802 5805 5807 5811 5816 5813 5815 5816 5817 5819 5820 5821 5821 5822 5822 5822 5822 5822 5822 5822 5822 5822 5822 5822 5822 5822 5822 5821 5821 5820 5820 5819 5819 5819 5819
5766 5769 5774 5778 5780 5781 5784 5788 5791 5795 5798 5801 5805 5808 5808 5809 5810 5812 5813 5814 5816 5816 5817 5817 5817 5818 5817 5817 5817 5817 5817 5817 5817 5818 5818 5818 5817 5817 5817 5817 5816 5816 5816 5816
5758 5762 5765 5768 5771 5774 5777 5781 5784 5788 5792 5795 5798 5801 5802 5803 5805 5806 5807 5809 5810 5811 5811 5812 5812 5813 5813 5812 5812 5812 5812 5813 5813 5814 5814 5814 5813 5813 5813 5813 5813 5813 5812 5812
5750 5754 5757 5760 5763 5766 5769 5773 5777 5781 5784 5788 5791 5794 5796 5797 5798 5800 5801 5803 5804 5805 5805 5806 5807 5807 5808 5808 5807 5808 5808 5808 5809 5809 5809 5809 5809 5809 5809 5809 5809 5809 5809 5809
5742 5746 5749 5753 5756 5758 5762 5767 5770 5774 5777 5781 5784 5788 5789 5790 5792 5794 5795 5797 5798 5799 5800 5801 5802 5802 5802 5803 5803 5803 5803 5804 5804 5805 5805 5805 5805 5805 5805 5805 5804 5804 5805 5805
5735 5738 5741 5745 5749 5751 5758 5761 5764 5767 5770 5774 5777 5780 5781 5783 5785 5787 5789 5791 5792 5794 5795 5795 5796 5797 5797 5798 5798 5798 5798 5799 5799 5800 5800 5800 5800 5800 5800 5800 5800 5800 5800 5801
5728 5731 5734 5738 5741 5745 5750 5753 5756 5759 5763 5766 5769 5772 5774 5777 5779 5781 5783 5785 5787 5788 5789 5790 5791 5792 5792 5792 5793 5793 5793 5794 5794 5794 5795 5795 5795 5795 5795 5795 5795 5795 5796 5796
5721 5724 5728 5731 5735 5739 5744 5746 5749 5753 5756 5759 5762 5765 5768 5770 5773 5776 5777 5779 5781 5782 5783 5784 5785 5786 5787 5787 5787 5788 5788 5788 5788 5788 5789 5789 5790 5790 5790 5790 5790 5790 5791 5791
5715 5717 5720 5724 5728 5732 5735 5739 5743 5747 5750 5753 5755 5758 5761 5764 5767 5769 5771 5773 5775 5776 5777 5778 5779 5780 5781 5781 5781 5781 5782 5782 5782 5782 5783 5783 5783 5784 5784 5784 5784 5785 5785 5785
5709 5712 5715 5718 5722 5727 5728 5732 5736 5740 5743 5746 5749 5752 5755 5758 5760 5762 5765 5767 5768 5770 5771 5772 5773 5774 5775 5775 5775 5775 5775 5775 5775 5776 5776 5777 5777 5778 5778 5778 5778 5779 5779 5779
5704 5707 5710 5713 5718 5719 5722 5726 5730 5734 5737 5741 5744 5747 5749 5752 5754 5756 5758 5760 5762 5763 5764 5765 5766 5767 5768 5768 5769 5769 5769 5769 5769 5770 5770 5771 5771 5772 5772 5772 5772 5772 5773 5773
5699 5701 5704 5707 5711 5714 5717 5720 5724 5728 5732 5735 5738 5740 5743 5745 5747 5749 5751 5753 5754 5756 5757 5758 5759 5760 5761 5762 5762 5762 5762 5762 5763 5763 5764 5765 5765 5766 5766 5766 5766 5766 5767 5767
5694 5697 5700 5702 5706 5708 5712 5715 5719 5723 5726 5729 5732 5734 5736 5738 5740 5742 5743 5745 5747 5748 5750 5751 5752 5753 5753 5754 5755 5755 5755 5756 5756 5757 5758 5758 5759 5759 5760 5760 5760 5760 5760 5761
5690 5693 5696 5698 5701 5705 5708 5711 5715 5718 5721 5723 5725 5727 5729 5731 5733 5734 5736 5738 5739 5741 5742 5743 5744 5745 5746 5746 5747 5748 5748 5749 5750 5751 5751 5752 5753 5753 5753 5754 5754 5754 5754 5755